SCP
0 0 0 0 0 0 0 0 0 0 0 0 0 0 0 0 0 0 0 0 0 0 0 0 0 0 0 0 0 0 0 0 0 0 0 0 0 0 0 0 0 0 0 0 0 0 0 0 0
0 0 0 0 0 0 0 0 0 0 0 0 0 0 0 0 0 0 0 0 0 0 0 0 0 0 0 0 0 0 0 0 0 0 0 0 0 0 0 0 0 0 0 0 0 0 0 0 0
0 0 0 0 0 0 0 0 0 0 0 0 0 0 0 0 0 0 0 0 0 0 0 0 0 0 0 0 0 0 0 0 0 0 0 0 0 0 0 0 0 0 0 0 0 0 0 0 0
0 0 0 0 0 0 0 0 0 0 0 0 0 0 0 0 0 0 0 0 0 0 0 0 0 0 0 0 0 0 0 0 0 0 0 0 0 0 0 0 0 0 0 0 0 0 0 0 0
0 0 0 0 0 0 0 0 0 0 0 0 0 0 0 0 0 0 0 0 0 0 0 0 0 0 0 0 0 0 0 0 0 0 0 0 0 0 0 0 0 0 0 0 0 0 0 0 0
-0 0 0 0 0 0 0 0 0 0 0 0 0 0 0 0 0 0 0 0 0 0 0 0 0 0 0 0 0 0 0 0 0 0 0 0 0 0 0 0 0 0 0 0 0 0 0 0 0
0 0 0 0 0 0 0 0 0 0 0 0 0 0 0 0 0 0 0 0 0 0 0 0 0 0 0 0 0 0 0 0 0 0 0 0 0 0 0 0 0 0 0 0 0 0 0 0 0
0 0 0 0 0 0 0 0 0 0 0 0 0 0 0 0 0 0 0 0 0 0 0 0 0 0 0 0 0 0 0 0 0 0 0 0 0 0 0 0 0 0 0 0 0 0 0 0 0
0 0 0 0 0 0 0 0 0 0 0 0 0 0 0 0 0 0 0 0 0 0 0 0 0 0 0 0 0 0 0 0 0 0 0 0 0 0 0 0 0 0 0 0 0 0 0 0 0
0 0 0 0 0 0 0 0 0 0 0 0 0 0 0 0 0 0 0 0 0 0 0 0 0 0 0 0 0 0 0 0 0 0 0 0 0 0 0 0 0 0 0 0 0 0 0 0 0
0 0 0 0 0 0 0 0 0 0 0 0 0 0 0 0 0 0 0 0 0 0 0 0 0 0 0 0 0 0 0 0 0 0 0 0 0 0 0 0 0 0 0 0 0 0 0 0 0
0 0 0 0 0 0 0 0 0 0 0 0 0 0 0 0 0 0 0 0 0 0 0 0 0 0 0 0 0 0 0 0 0 0 0 0 0 0 0 0 0 0 0 0 0 0 0 0 0
0 0 0 0 0 0 0 0 0 0 0 0 0 0 0 0 0 0 0 0 0 0 0 0 0 0 0 0 0 0 0 0 0 0 0 0 0 0 0 0 0 0 0 0 0 0 0 0 0
0 0 0 0 0 0 0 0 0 0 0 0 0 0 0 0 0 0 0 0 0 0 0 0 0 0 0 0 0 0 0 0 0 0 0 0 0 0 0 0 0 0 0 0 0 0 0 0 0
0 0 0 0 0 0 0 0 0 0 0 0 0 0 0 0 0 0 0 0 0 0 0 0 0 0 0 0 0 0 0 0 0 0 0 0 0 0 0 0 0 0 0 0 0 0 0 0 0
0 0 0 0 0 0 0 0 0 0 0 0 0 0 0 0 0 0 0 0 0 0 0 0 0 0 0 0 0 0 0 0 0 0 0 0 0 0 0 0 0 0 0 0 0 0 0 0 0
0 0 0 0 0 0 0 0 0 0 0 0 0 0 0 0 0 0 0 0 0 0 0 0 0 0 0 0 0 0 0 0 0 0 0 0 0 0 0 0 0 0 0 0 0 0 0 0 0
0 0 0 0 0 0 0 0 0 0 0 0 0 0 0 0 0 0 0 0 0 0 0 0 0 0 0 0 0 0 0 0 0 0 0 0 0 0 0 0 0 0 0 0 0 0 0 0 0
0 0 0 0 0 0 0 0 0 0 0 0 0 0 0 0 0 0 0 0 0 0 0 0 0 0 0 0 0 0 0 0 0 0 0 0 0 0 0 0 0 0 0 0 0 0 0 0 0
0 0 0 0 0 0 0 0 0 0 0 0 0 0 0 0 0 0 0 0 0 0 0 0 0 0 0 0 0 0 0 0 0 0 0 0 0 0 0 0 0 0 0 0 0 0 0 0 0
0 0 0 0 0 0 0 0 0 0 0 0 0 0 0 0 0 0 0 0 0 0 0 0 0 0 0 0 0 0 0 0 0 0 0 0 0 0 0 0 0 0 0 0 0 0 0 0 0
0 0 0 0 0 0 0 0 0 0 0 0 0 0 0 0 0 0 0 0 0 0 0 0 0 0 0 0 0 0 0 0 0 0 0 0 0 0 0 0 0 0 0 0 0 0 0 0 0
0 0 0 0 0 0 0 0 0 0 0 0 0 0 0 0 0 0 0 0 0 0 0 0 0 0 0 0 0 0 0 0 0 0 0 0 0 0 0 0 0 0 0 0 0 0 0 0 0
0 0 0 0 0 0 0 0 0 0 0 0 0 0 0 0 0 0 0 0 0 0 0 0 0 0 0 0 0 0 0 0 0 0 0 0 0 0 0 0 0 0 0 0 0 0 0 0 0
0 0 0 0 0 0 0 0 0 0 0 0 0 0 0 0 0 0 0 0 0 0 0 0 0 0 0 0 0 0 0 0 0 0 0 0 0 0 0 0 0 0 0 0 0 0 0 0 0
0 0 0 0 0 0 0 0 0 0 0 0 0 0 0 0 0 0 0 0 0 0 0 0 0 0 0 0 0 0 0 0 0 0 0 0 0 0 0 0 0 0 0 0 0 0 0 0 0
0 0 0 0 0 0 0 0 0 0 0 0 0 0 0 0 0 0 0 0 0 0 0 0 0 0 0 0 0 0 0 0 0 0 0 0 0 0 0 0 0 0 0 0 0 0 0 0 0
0 0 0 0 0 0 0 0 0 0 0 0 0 0 0 0 0 0 0 0 0 0 0 0 0 0 0 0 0 0 0 0 0 0 0 0 0 0 0 0 0 0 0 0 0 0 0 0 0
0 0 0 0 0 0 0 0 0 0 0 0 0 0 0 0 0 0 0 0 0 0 0 0 0 0 0 0 0 0 0 0 0 0 0 0 0 0 0 0 0 0 0 0 0 0 0 0 0
0 0 0 0 0 0 0 0 0 0 0 0 0 0 0 0 0 0 0 0 0 0 0 0 0 0 0 0 0 0 0 0 0 0 0 0 0 0 0 0 0 0 0 0 0 0 0 0 0
Wind_Speed
4 4 3 4 7 7 3 2 3 3 3 3 4 8 8 5 3 5 4 6 8 5 3 3 7 9 10 11 12 13 14 14 15 16 17 17 18 18 19 20 20 21 21 22 22 23 23 24 24
2 3 5 6 6 3 2 2 4 2 6 7 5 6 5 3 3 7 5 6 8 6 2 2 7 8 9 10 11 12 13 14 15 16 16 17 17 18 19 19 20 20 21 21 22 22 23 23 24
1 3 5 6 5 4 5 3 5 3 4 4 4 4 4 6 6 6 6 8 8 5 2 1 7 8 9 10 11 12 13 13 14 16 16 17 18 18 19 19 20 20 21 21 22 22 23 23 24
4 5 7 7 3 1 5 5 6 6 3 5 5 4 2 2 6 7 8 9 8 5 2 1 7 7 8 9 10 11 12 13 14 16 17 18 18 18 19 19 20 20 21 22 22 22 23 24 24
4 6 7 5 1 1 2 6 7 5 5 3 5 5 2 1 5 9 9 9 9 5 2 1 6 6 7 8 9 10 11 13 14 15 17 18 18 19 19 19 20 21 21 22 22 23 23 24 24
5 6 6 3 2 1 2 5 5 4 5 5 7 7 4 3 7 8 9 8 8 6 4 4 6 6 6 7 8 9 11 12 14 15 16 18 18 19 19 20 20 21 21 22 22 23 23 24 24
5 6 5 7 6 4 6 5 7 6 6 8 9 8 3 5 7 8 8 8 7 6 5 4 4 5 7 7 8 9 10 11 13 14 15 17 18 18 19 20 20 21 22 22 22 23 24 24 24
5 7 5 5 6 6 6 6 5 7 5 6 8 10 8 10 8 8 7 7 6 6 5 4 3 3 3 4 7 8 9 10 12 13 14 15 16 16 18 18 20 21 21 22 22 23 24 24 24
4 6 4 8 8 7 7 5 2 2 6 4 3 6 7 14 11 9 6 4 5 5 4 4 4 3 2 2 5 6 7 8 9 8 11 10 5 5 9 16 20 21 20 21 21 22 23 23 21
6 5 6 4 5 8 7 6 8 5 3 2 1 1 8 15 14 12 9 8 7 6 5 4 4 3 2 2 2 2 2 3 3 2 3 3 4 5 9 15 18 19 19 19 20 22 19 15 8
5 5 3 1 2 7 7 6 6 9 7 9 9 9 13 13 13 12 11 9 8 8 7 6 5 4 2 0 0 1 1 1 2 2 3 3 3 4 5 4 7 8 11 7 10 10 7 7 7
5 2 2 1 2 6 8 8 5 8 9 7 11 17 17 16 16 14 12 10 8 7 7 6 6 4 3 1 1 0 0 0 1 1 2 2 2 3 3 3 3 3 3 4 4 4 6 6 7
3 1 1 2 4 5 7 5 5 7 4 5 12 15 17 16 13 10 10 10 9 9 8 7 7 5 3 2 1 1 0 1 1 0 1 2 1 1 2 2 2 3 3 3 4 5 6 6 6
3 3 2 3 3 2 4 3 4 7 6 9 14 16 15 16 14 10 10 11 12 10 9 7 7 6 4 3 2 1 1 1 1 1 1 2 2 0 1 2 3 3 3 3 4 5 5 5 5
4 4 2 1 0 0 2 5 9 5 9 10 12 13 14 13 13 13 13 12 12 11 10 8 8 6 5 4 3 1 1 1 1 1 2 2 2 1 1 2 3 3 3 4 4 5 4 6 7
3 2 2 4 4 2 4 10 8 8 11 11 11 11 12 14 13 12 12 11 12 11 11 9 8 7 6 4 3 1 1 1 1 2 2 3 2 2 1 2 3 3 3 3 4 3 4 6 6
1 1 4 3 6 5 6 11 5 7 11 11 12 12 13 13 13 12 12 13 14 14 12 10 8 8 7 5 3 2 1 1 2 2 2 3 3 2 2 2 3 3 3 3 5 4 4 6 7
3 4 4 6 5 6 6 13 9 7 10 11 11 12 13 16 18 13 13 13 13 13 12 11 9 8 7 4 2 1 1 2 2 2 3 4 3 3 3 3 3 3 3 3 3 5 5 5 6
3 3 5 5 4 7 10 15 14 8 10 11 11 13 16 18 14 11 12 12 12 12 12 12 10 8 6 3 3 2 2 2 2 3 4 4 4 3 3 3 3 3 3 4 5 4 6 5 5
2 3 4 3 3 6 7 14 13 9 11 13 15 16 17 15 11 12 12 13 15 16 15 13 12 10 8 5 4 3 3 3 3 3 3 4 4 4 3 3 3 3 3 5 5 4 4 5 5
2 3 3 2 2 3 5 12 7 4 5 7 9 11 12 17 17 15 16 17 16 17 17 15 13 12 10 7 4 2 1 1 1 2 3 3 4 4 4 4 4 4 3 4 5 5 5 6 6
4 2 0 0 2 5 1 7 10 4 5 8 12 12 15 15 15 15 17 18 19 18 15 13 13 11 10 9 6 6 5 4 4 3 3 4 4 4 4 4 4 4 4 5 5 5 4 5 8
3 1 1 1 0 4 2 3 12 3 7 11 13 15 17 16 14 16 18 20 18 15 14 13 12 12 10 9 9 7 6 5 3 3 4 4 4 4 5 5 4 5 4 5 6 6 6 5 6
2 3 3 4 4 4 6 6 11 7 10 9 9 12 15 14 13 13 12 12 12 12 12 12 13 12 11 11 9 9 8 7 5 5 4 4 3 4 5 5 5 5 5 6 6 6 7 6 7
3 4 3 4 2 8 3 5 14 10 10 10 10 11 12 11 10 11 12 13 14 15 16 14 15 13 12 11 10 10 9 9 8 7 6 5 3 3 6 5 5 5 6 6 6 6 7 6 7
4 6 5 4 5 7 4 9 13 7 7 7 8 7 7 8 9 12 14 15 16 17 17 16 16 14 13 12 11 9 9 7 6 7 6 5 5 5 6 6 6 7 7 7 6 6 7 6 7
3 4 6 4 3 5 8 10 13 5 4 5 5 6 9 10 10 11 11 13 14 17 19 19 17 14 13 13 11 9 9 8 7 7 6 5 5 5 6 6 6 7 7 7 7 6 7 7 8
3 4 4 3 3 6 9 8 8 7 9 9 8 10 12 10 9 10 10 13 14 15 15 14 15 15 13 12 11 9 9 8 7 6 7 6 6 6 6 6 6 7 7 7 7 7 7 8 8
5 4 5 4 4 5 6 12 9 8 9 11 13 13 13 12 13 12 12 11 11 10 12 14 14 13 12 12 11 9 8 8 7 7 7 7 6 6 6 7 7 7 7 7 7 8 8 9 10
7 7 8 5 6 6 5 15 9 9 9 9 11 10 9 10 10 10 10 9 11 13 14 15 14 14 13 12 11 10 8 7 7 7 7 7 7 6 6 6 7 7 8 7 8 9 10 9 11
Wind_Direction
67 90 69 57 57 55 90 124 137 114 79 61 76 89 96 101 141 155 155 137 126 107 59 3 59 57 52 48 44 39 36 33 31 28 25 24 23 22 21 18 16 14 12 11 9 7 6 4 2
83 104 55 59 80 93 201 148 132 152 142 132 90 87 85 85 94 122 157 143 123 112 75 3 75 63 55 50 45 39 36 33 31 28 25 23 22 21 20 17 15 13 11 10 8 6 5 3 1
42 82 78 70 87 166 192 176 156 130 130 115 80 63 101 143 143 158 162 139 117 109 75 359 82 69 59 51 45 39 35 32 31 28 25 23 21 20 19 16 13 11 10 9 7 6 5 3 2
68 56 54 67 81 326 178 175 159 128 101 81 104 90 73 134 168 161 142 131 120 121 94 3 88 73 62 52 44 39 34 31 30 28 25 23 20 18 18 14 11 10 9 8 7 6 5 4 3
65 79 65 63 55 354 150 157 148 136 143 110 116 126 134 351 129 131 137 135 131 139 132 10 84 69 59 48 42 38 34 31 30 27 25 23 19 16 16 13 10 9 9 7 7 6 6 5 3
61 70 88 147 156 132 181 175 146 132 137 128 128 141 190 174 142 145 142 139 139 140 118 48 62 57 49 42 39 36 33 31 30 26 24 23 18 14 15 11 8 8 7 6 5 5 4 4 2
94 91 130 159 160 185 202 173 157 155 160 176 150 137 194 211 186 153 142 138 137 134 120 93 64 44 34 26 34 34 33 31 30 25 23 23 17 13 15 9 6 7 5 5 3 2 2 2 0
113 100 106 159 171 209 185 151 164 160 172 145 139 152 197 203 184 147 139 136 135 130 128 122 96 72 37 4 23 31 30 28 28 22 21 24 18 14 14 5 4 5 3 3 0 360 0 360 357
82 83 162 193 186 197 178 141 115 125 126 124 175 193 196 157 155 143 141 144 150 145 144 140 121 91 44 5 36 26 24 25 31 22 21 28 14 0 14 1 5 4 2 1 358 358 358 358 353
64 130 189 199 198 174 173 154 153 136 149 162 85 40 132 147 161 165 170 172 171 171 173 160 144 130 89 34 38 7 20 26 35 40 35 33 22 9 22 7 5 3 1 0 357 356 357 354 343
69 140 157 1 155 146 144 151 156 146 203 209 192 170 153 162 173 181 182 177 178 177 174 168 160 152 143 150 294 8 6 7 14 25 39 40 35 20 17 8 0 354 358 353 350 349 342 337 337
80 57 109 43 108 135 152 158 184 195 216 210 176 162 165 176 185 189 187 181 174 174 178 174 164 159 169 179 251 192 328 334 350 1 43 62 45 20 4 358 340 339 335 331 332 328 328 328 327
93 114 35 43 85 128 139 173 213 231 228 138 145 161 177 186 192 194 185 176 172 179 178 175 165 167 173 177 237 158 243 258 265 16 66 98 84 24 355 335 328 321 319 324 324 324 325 327 325
114 89 56 34 53 96 150 218 249 243 149 141 160 178 188 192 193 189 182 181 182 180 178 173 170 172 168 174 201 226 242 256 238 188 156 140 142 141 325 318 316 313 313 315 318 315 319 314 315
93 81 7 298 298 203 101 267 237 210 148 165 182 190 196 202 198 196 190 183 183 181 175 174 176 171 168 180 204 207 243 245 231 211 190 182 180 192 243 293 302 301 306 315 316 312 318 321 323
95 70 295 240 196 169 155 259 252 169 163 186 196 200 205 210 208 203 193 184 180 176 176 181 176 166 171 178 189 204 224 218 226 218 212 213 214 211 230 275 286 291 303 313 312 316 321 317 313
19 290 270 255 193 169 193 250 271 171 182 198 203 207 211 215 217 210 198 187 181 178 177 179 172 169 173 175 169 173 187 222 235 233 228 230 234 234 235 261 272 288 300 306 318 330 310 309 311
237 233 258 255 207 174 219 256 264 197 207 212 210 212 216 219 219 208 200 189 182 179 177 176 175 173 166 159 152 151 232 255 254 244 237 234 239 248 251 262 273 286 296 299 300 302 302 295 299
218 235 263 265 186 185 234 259 268 211 215 227 221 218 222 227 222 205 196 186 180 180 180 179 177 175 162 157 165 181 223 247 262 250 234 234 242 256 261 277 281 283 283 286 294 297 303 299 297
240 273 275 284 191 204 266 274 268 216 209 217 218 220 224 229 222 208 195 189 188 187 186 184 182 177 175 171 167 174 189 221 232 241 243 244 251 263 271 264 268 275 280 292 296 299 291 297 315
271 245 255 286 344 273 308 301 283 245 224 232 227 224 225 224 222 211 201 197 195 194 190 188 184 180 177 169 153 157 161 261 254 244 246 253 259 263 265 268 265 269 263 275 285 286 281 300 303
257 217 199 330 357 296 240 296 290 265 261 245 237 231 232 229 223 213 205 202 201 199 190 186 181 179 176 169 168 171 189 208 221 220 232 256 260 262 265 266 264 264 261 268 278 297 281 285 302
217 167 143 86 135 308 251 227 280 283 264 255 239 231 234 230 220 215 209 206 202 192 187 183 179 180 177 176 177 179 198 210 221 229 246 254 259 261 265 264 260 260 261 265 270 281 277 269 279
118 63 57 50 66 288 226 186 272 234 220 241 241 230 231 228 220 219 211 197 191 183 183 181 181 184 181 181 182 186 197 207 218 231 240 246 250 257 261 261 254 256 260 263 267 268 271 270 273
94 81 4 332 333 256 237 212 250 242 221 218 227 231 229 222 213 210 200 193 189 185 186 185 185 188 186 186 190 193 198 201 212 222 228 235 242 247 255 260 255 257 257 262 263 265 269 269 272
183 148 172 234 252 286 289 239 253 256 247 233 239 246 241 225 214 211 205 197 192 190 188 188 190 190 188 191 196 196 197 198 209 215 216 223 229 239 248 249 250 255 260 269 267 269 268 270 269
193 201 176 159 268 273 271 277 294 254 258 238 241 249 245 235 223 217 206 197 193 191 192 191 190 191 192 194 193 196 198 200 209 214 217 224 232 243 246 245 252 258 261 263 266 266 267 270 271
202 151 112 150 239 273 285 270 256 262 243 240 242 244 247 243 236 225 211 203 198 196 193 190 192 193 192 191 194 199 200 203 207 210 219 227 236 243 251 254 255 260 262 263 264 265 266 268 272
173 192 179 174 185 198 273 271 231 238 232 224 231 235 239 236 231 225 216 205 196 187 188 192 194 193 192 194 195 197 196 200 204 212 222 227 234 239 244 250 255 261 264 263 262 264 270 269 274
188 197 164 180 231 205 227 269 257 246 249 231 237 242 242 240 234 225 210 193 191 194 195 196 197 197 197 193 192 197 197 198 206 217 225 227 233 237 242 250 257 263 267 263 262 268 275 270 274